Time,TemperatureF,DewpointF,PressureIn,WindDirection,WindDirectionDegrees,WindSpeedMPH,WindSpeedGustMPH,Humidity,HourlyPrecipIn,Conditions,Clouds,dailyrainin,SoftwareType,DateUTC
2013-01-06 00:00:00,61.8,58.2,30.23,NE,51,0.0,0.0,88,0.00,,---,0.00,VWS V14.00,2013-01-06 05:00:00,
2013-01-06 00:01:00,61.8,58.2,30.23,NE,51,0.0,0.0,88,0.00,,---,0.00,VWS V14.00,2013-01-06 05:01:00,
2013-01-06 00:03:00,61.8,58.2,30.22,NE,51,0.0,0.0,88,0.00,,---,0.00,VWS V14.00,2013-01-06 05:03:00,
2013-01-06 00:08:00,61.7,58.1,30.22,NE,51,0.0,0.0,88,0.00,,---,0.00,VWS V14.00,2013-01-06 05:08:00,
2013-01-06 00:13:00,61.6,58.0,30.22,NE,51,0.0,0.0,88,0.00,,---,0.00,VWS V14.00,2013-01-06 05:13:00,
2013-01-06 00:18:00,61.5,57.9,30.22,NE,51,0.0,0.0,88,0.00,,---,0.00,VWS V14.00,2013-01-06 05:18:00,
2013-01-06 00:23:00,61.3,57.7,30.22,NE,51,0.0,0.0,88,0.00,,---,0.00,VWS V14.00,2013-01-06 05:23:00,
2013-01-06 00:28:00,61.1,57.5,30.22,NE,51,0.0,0.0,88,0.00,,---,0.00,VWS V14.00,2013-01-06 05:28:00,
2013-01-06 00:30:00,60.5,57.6,30.19,NE,51,0.0,0.0,90,0.00,,---,0.00,VWS V14.00,2013-01-06 05:30:00,
2013-01-06 00:33:00,61.0,57.4,30.22,NE,51,0.0,0.0,88,0.00,,---,0.00,VWS V14.00,2013-01-06 05:33:00,
2013-01-06 00:38:00,60.9,57.6,30.21,NE,51,0.0,0.0,89,0.00,,---,0.00,VWS V14.00,2013-01-06 05:38:00,
2013-01-06 00:43:00,60.8,57.5,30.21,NE,51,0.0,0.0,89,0.00,,---,0.00,VWS V14.00,2013-01-06 05:43:00,
2013-01-06 00:48:00,60.7,57.4,30.21,NE,51,0.0,0.0,89,0.00,,---,0.00,VWS V14.00,2013-01-06 05:48:00,
2013-01-06 00:53:00,60.7,57.4,30.21,NE,51,0.0,0.0,89,0.00,,---,0.00,VWS V14.00,2013-01-06 05:53:00,
2013-01-06 00:58:00,60.7,57.8,30.21,NE,51,0.0,0.0,90,0.00,,---,0.00,VWS V14.00,2013-01-06 05:58:00,
2013-01-06 01:00:00,60.2,57.6,30.18,NE,51,0.0,0.0,91,0.00,,---,0.00,VWS V14.00,2013-01-06 06:00:00,
2013-01-06 01:03:00,60.5,57.6,30.20,NE,51,0.0,0.0,90,0.00,,---,0.00,VWS V14.00,2013-01-06 06:03:00,
2013-01-06 01:08:00,60.5,57.6,30.20,NE,51,0.0,0.0,90,0.00,,---,0.00,VWS V14.00,2013-01-06 06:08:00,
2013-01-06 01:14:00,60.5,57.6,30.20,NE,51,0.0,0.0,90,0.00,,---,0.00,VWS V14.00,2013-01-06 06:14:00,
2013-01-06 01:19:00,60.5,57.6,30.20,NE,51,0.0,0.0,90,0.00,,---,0.00,VWS V14.00,2013-01-06 06:19:00,
2013-01-06 01:24:00,60.5,57.6,30.20,NE,51,0.0,0.0,90,0.00,,---,0.00,VWS V14.00,2013-01-06 06:24:00,
2013-01-06 01:29:00,60.5,57.6,30.19,NE,51,0.0,0.0,90,0.00,,---,0.00,VWS V14.00,2013-01-06 06:29:00,
2013-01-06 01:30:00,59.9,57.3,30.18,NE,51,0.0,0.0,91,0.00,,---,0.00,VWS V14.00,2013-01-06 06:30:00,
2013-01-06 01:34:00,60.5,57.6,30.19,NE,51,0.0,0.0,90,0.00,,---,0.00,VWS V14.00,2013-01-06 06:34:00,
2013-01-06 01:39:00,60.4,57.5,30.19,NE,51,0.0,0.0,90,0.00,,---,0.00,VWS V14.00,2013-01-06 06:39:00,
2013-01-06 01:44:00,60.4,57.5,30.18,NE,51,0.0,0.0,90,0.00,,---,0.00,VWS V14.00,2013-01-06 06:44:00,
2013-01-06 01:49:00,60.3,57.7,30.18,NE,51,0.0,0.0,91,0.00,,---,0.00,VWS V14.00,2013-01-06 06:49:00,
2013-01-06 01:54:00,60.3,57.7,30.18,NE,51,0.0,0.0,91,0.00,,---,0.00,VWS V14.00,2013-01-06 06:54:00,
2013-01-06 01:59:00,60.2,57.6,30.18,NE,51,0.0,0.0,91,0.00,,---,0.00,VWS V14.00,2013-01-06 06:59:00,
2013-01-06 02:00:00,60.1,57.5,30.19,NE,51,0.0,1.0,91,0.00,,---,0.00,VWS V14.00,2013-01-06 07:00:00,
2013-01-06 02:04:00,60.2,57.6,30.18,NE,51,0.0,0.0,91,0.00,,---,0.00,VWS V14.00,2013-01-06 07:04:00,
2013-01-06 02:09:00,60.0,57.4,30.18,NE,51,0.0,0.0,91,0.00,,---,0.00,VWS V14.00,2013-01-06 07:09:00,
2013-01-06 02:14:00,59.9,57.3,30.18,NE,51,0.0,0.0,91,0.00,,---,0.00,VWS V14.00,2013-01-06 07:14:00,
2013-01-06 02:19:00,59.9,57.3,30.18,NE,51,0.0,0.0,91,0.00,,---,0.00,VWS V14.00,2013-01-06 07:19:00,
2013-01-06 02:24:00,59.9,57.3,30.18,NE,51,0.0,0.0,91,0.00,,---,0.00,VWS V14.00,2013-01-06 07:24:00,
2013-01-06 02:29:00,59.9,57.3,30.18,NE,51,0.0,0.0,91,0.00,,---,0.00,VWS V14.00,2013-01-06 07:29:00,
2013-01-06 02:30:00,59.8,56.9,30.18,NE,51,0.0,2.0,90,0.00,,---,0.00,VWS V14.00,2013-01-06 07:30:00,
2013-01-06 02:34:00,59.9,57.3,30.18,NE,51,0.0,0.0,91,0.00,,---,0.00,VWS V14.00,2013-01-06 07:34:00,
2013-01-06 02:39:00,60.0,57.4,30.18,NE,51,0.0,0.0,91,0.00,,---,0.00,VWS V14.00,2013-01-06 07:39:00,
2013-01-06 02:45:00,60.0,57.4,30.18,NE,51,0.0,0.0,91,0.00,,---,0.00,VWS V14.00,2013-01-06 07:45:00,
2013-01-06 02:50:00,60.1,57.5,30.18,NE,51,0.0,0.0,91,0.00,,---,0.00,VWS V14.00,2013-01-06 07:50:00,
2013-01-06 02:55:00,60.1,57.5,30.18,NE,51,0.0,1.0,91,0.00,,---,0.00,VWS V14.00,2013-01-06 07:55:00,
2013-01-06 03:00:00,60.1,57.5,30.18,NE,51,0.0,1.0,91,0.00,,---,0.00,VWS V14.00,2013-01-06 08:00:00,
2013-01-06 03:05:00,60.0,57.4,30.18,NE,51,0.0,1.0,91,0.00,,---,0.00,VWS V14.00,2013-01-06 08:05:00,
2013-01-06 03:10:00,60.0,57.4,30.18,NE,51,0.0,1.0,91,0.00,,---,0.00,VWS V14.00,2013-01-06 08:10:00,
2013-01-06 03:15:00,59.9,57.3,30.18,NE,51,0.0,2.0,91,0.00,,---,0.00,VWS V14.00,2013-01-06 08:15:00,
2013-01-06 03:20:00,59.9,57.3,30.18,NE,51,0.0,2.0,91,0.00,,---,0.00,VWS V14.00,2013-01-06 08:20:00,
2013-01-06 03:25:00,59.9,57.0,30.18,NE,51,0.0,2.0,90,0.00,,---,0.00,VWS V14.00,2013-01-06 08:25:00,
2013-01-06 03:30:00,59.9,57.0,30.18,NE,51,0.0,2.0,90,0.00,,---,0.00,VWS V14.00,2013-01-06 08:30:00,
2013-01-06 03:35:00,59.8,56.9,30.18,NE,51,0.0,0.0,90,0.00,,---,0.00,VWS V14.00,2013-01-06 08:35:00,
2013-01-06 03:40:00,59.8,56.9,30.18,NE,51,0.0,0.0,90,0.00,,---,0.00,VWS V14.00,2013-01-06 08:40:00,
2013-01-06 03:45:00,59.8,56.9,30.18,NE,51,0.0,0.0,90,0.00,,---,0.00,VWS V14.00,2013-01-06 08:45:00,
2013-01-06 03:50:00,59.8,56.9,30.18,NE,51,0.0,0.0,90,0.00,,---,0.00,VWS V14.00,2013-01-06 08:50:00,
2013-01-06 03:55:00,59.8,56.9,30.17,NE,51,0.0,2.0,90,0.00,,---,0.00,VWS V14.00,2013-01-06 08:55:00,
2013-01-06 04:00:00,59.8,56.9,30.17,NE,51,0.0,2.0,90,0.00,,---,0.00,VWS V14.00,2013-01-06 09:00:00,
2013-01-06 04:05:00,59.7,56.8,30.17,NE,51,0.0,0.0,90,0.00,,---,0.00,VWS V14.00,2013-01-06 09:05:00,
2013-01-06 04:11:00,59.7,57.4,30.17,NE,51,0.0,0.0,92,0.00,,---,0.00,VWS V14.00,2013-01-06 09:11:00,
2013-01-06 04:16:00,59.7,56.8,30.17,NE,51,0.0,0.0,90,0.00,,---,0.00,VWS V14.00,2013-01-06 09:16:00,
2013-01-06 04:21:00,59.6,56.7,30.17,NE,51,0.0,0.0,90,0.00,,---,0.00,VWS V14.00,2013-01-06 09:21:00,
2013-01-06 04:26:00,59.6,56.7,30.17,NE,51,0.0,0.0,90,0.00,,---,0.00,VWS V14.00,2013-01-06 09:26:00,
2013-01-06 04:30:00,59.6,56.7,30.16,NE,51,0.0,0.0,90,0.00,,---,0.00,VWS V14.00,2013-01-06 09:30:00,
2013-01-06 04:31:00,59.6,56.7,30.17,NE,51,0.0,0.0,90,0.00,,---,0.00,VWS V14.00,2013-01-06 09:31:00,
2013-01-06 04:36:00,59.7,56.8,30.17,NE,51,0.0,0.0,90,0.00,,---,0.00,VWS V14.00,2013-01-06 09:36:00,
2013-01-06 04:41:00,59.7,56.8,30.17,NE,51,0.0,0.0,90,0.00,,---,0.00,VWS V14.00,2013-01-06 09:41:00,
2013-01-06 04:46:00,59.7,56.8,30.17,NE,51,0.0,0.0,90,0.00,,---,0.00,VWS V14.00,2013-01-06 09:46:00,
2013-01-06 04:51:00,59.7,56.8,30.16,NE,51,0.0,0.0,90,0.00,,---,0.00,VWS V14.00,2013-01-06 09:51:00,
2013-01-06 04:56:00,59.7,56.8,30.16,NE,51,0.0,0.0,90,0.00,,---,0.00,VWS V14.00,2013-01-06 09:56:00,
2013-01-06 05:00:00,59.6,57.0,30.16,NE,51,0.0,0.0,91,0.00,,---,0.00,VWS V14.00,2013-01-06 10:00:00,
2013-01-06 05:01:00,59.6,56.7,30.16,NE,51,0.0,0.0,90,0.00,,---,0.00,VWS V14.00,2013-01-06 10:01:00,
2013-01-06 05:06:00,59.6,56.7,30.16,NE,51,0.0,0.0,90,0.00,,---,0.00,VWS V14.00,2013-01-06 10:06:00,
2013-01-06 05:11:00,59.6,56.7,30.16,NE,51,0.0,0.0,90,0.00,,---,0.00,VWS V14.00,2013-01-06 10:11:00,
2013-01-06 05:16:00,59.6,56.7,30.16,NE,51,0.0,0.0,90,0.00,,---,0.00,VWS V14.00,2013-01-06 10:16:00,
2013-01-06 05:21:00,59.6,56.7,30.16,NE,51,0.0,0.0,90,0.00,,---,0.00,VWS V14.00,2013-01-06 10:21:00,
2013-01-06 05:26:00,59.6,56.7,30.16,NE,51,0.0,0.0,90,0.00,,---,0.00,VWS V14.00,2013-01-06 10:26:00,
2013-01-06 05:30:00,59.5,57.2,30.16,NE,51,0.0,1.0,92,0.00,,---,0.00,VWS V14.00,2013-01-06 10:30:00,
2013-01-06 05:31:00,59.6,56.7,30.16,NE,51,0.0,0.0,90,0.00,,---,0.00,VWS V14.00,2013-01-06 10:31:00,
2013-01-06 05:36:00,59.6,57.0,30.16,NE,51,0.0,0.0,91,0.00,,---,0.00,VWS V14.00,2013-01-06 10:36:00,
2013-01-06 05:41:00,59.6,56.7,30.15,NE,51,0.0,0.0,90,0.00,,---,0.00,VWS V14.00,2013-01-06 10:41:00,
2013-01-06 05:46:00,59.6,57.0,30.16,NE,51,0.0,0.0,91,0.00,,---,0.00,VWS V14.00,2013-01-06 10:46:00,
2013-01-06 05:51:00,59.6,57.0,30.16,NE,51,0.0,0.0,91,0.00,,---,0.00,VWS V14.00,2013-01-06 10:51:00,
2013-01-06 05:57:00,59.6,57.0,30.15,NE,51,0.0,0.0,91,0.00,,---,0.00,VWS V14.00,2013-01-06 10:57:00,
2013-01-06 06:00:00,59.3,57.3,30.17,NE,51,0.0,1.0,93,0.00,,---,0.00,VWS V14.00,2013-01-06 11:00:00,
2013-01-06 06:02:00,59.6,57.0,30.16,NE,51,0.0,0.0,91,0.00,,---,0.00,VWS V14.00,2013-01-06 11:02:00,
2013-01-06 06:07:00,59.6,57.3,30.16,NE,51,0.0,0.0,92,0.00,,---,0.00,VWS V14.00,2013-01-06 11:07:00,
2013-01-06 06:12:00,59.6,57.3,30.16,NE,51,0.0,0.0,92,0.00,,---,0.00,VWS V14.00,2013-01-06 11:12:00,
2013-01-06 06:17:00,59.5,57.2,30.16,NE,51,0.0,0.0,92,0.00,,---,0.00,VWS V14.00,2013-01-06 11:17:00,
2013-01-06 06:22:00,59.5,57.2,30.16,NE,51,0.0,0.0,92,0.00,,---,0.00,VWS V14.00,2013-01-06 11:22:00,
2013-01-06 06:27:00,59.5,57.2,30.16,NE,51,0.0,0.0,92,0.00,,---,0.00,VWS V14.00,2013-01-06 11:27:00,
2013-01-06 06:30:00,59.3,57.6,30.18,NE,51,0.0,0.0,94,0.00,,---,0.00,VWS V14.00,2013-01-06 11:30:00,
2013-01-06 06:32:00,59.5,57.2,30.16,NE,51,0.0,0.0,92,0.00,,---,0.00,VWS V14.00,2013-01-06 11:32:00,
2013-01-06 06:37:00,59.5,57.2,30.16,NE,51,0.0,0.0,92,0.00,,---,0.00,VWS V14.00,2013-01-06 11:37:00,
2013-01-06 06:42:00,59.5,57.5,30.16,NE,51,0.0,0.0,93,0.00,,---,0.00,VWS V14.00,2013-01-06 11:42:00,
2013-01-06 06:47:00,59.4,57.4,30.16,NE,51,0.0,0.0,93,0.00,,---,0.00,VWS V14.00,2013-01-06 11:47:00,
2013-01-06 06:52:00,59.4,57.4,30.17,NE,51,0.0,0.0,93,0.00,,---,0.00,VWS V14.00,2013-01-06 11:52:00,
2013-01-06 06:57:00,59.4,57.4,30.17,NE,51,0.0,1.0,93,0.00,,---,0.00,VWS V14.00,2013-01-06 11:57:00,
2013-01-06 07:00:00,59.9,58.2,30.17,NE,51,0.0,0.0,94,0.00,,---,0.00,VWS V14.00,2013-01-06 12:00:00,
2013-01-06 07:02:00,59.3,57.3,30.17,NE,51,0.0,0.0,93,0.00,,---,0.00,VWS V14.00,2013-01-06 12:02:00,
2013-01-06 07:07:00,59.3,57.3,30.17,NE,51,0.0,0.0,93,0.00,,---,0.00,VWS V14.00,2013-01-06 12:07:00,
2013-01-06 07:12:00,59.3,57.6,30.17,NE,51,0.0,0.0,94,0.00,,---,0.00,VWS V14.00,2013-01-06 12:12:00,
2013-01-06 07:17:00,59.3,57.6,30.17,NE,51,0.0,0.0,94,0.00,,---,0.00,VWS V14.00,2013-01-06 12:17:00,
2013-01-06 07:22:00,59.2,57.2,30.17,NE,51,0.0,0.0,93,0.00,,---,0.00,VWS V14.00,2013-01-06 12:22:00,
2013-01-06 07:27:00,59.3,57.6,30.17,NE,51,0.0,0.0,94,0.00,,---,0.00,VWS V14.00,2013-01-06 12:27:00,
2013-01-06 07:30:00,61.2,59.8,30.18,NE,51,0.0,0.0,95,0.00,,---,0.00,VWS V14.00,2013-01-06 12:30:00,
2013-01-06 07:32:00,59.3,57.6,30.17,NE,51,0.0,0.0,94,0.00,,---,0.00,VWS V14.00,2013-01-06 12:32:00,
2013-01-06 07:37:00,59.3,57.6,30.17,NE,51,0.0,0.0,94,0.00,,---,0.00,VWS V14.00,2013-01-06 12:37:00,
2013-01-06 07:43:00,59.4,57.7,30.17,NE,51,0.0,0.0,94,0.00,,---,0.00,VWS V14.00,2013-01-06 12:43:00,
2013-01-06 07:48:00,59.5,57.8,30.17,NE,51,0.0,0.0,94,0.00,,---,0.00,VWS V14.00,2013-01-06 12:48:00,
2013-01-06 07:53:00,59.6,57.9,30.17,NE,51,0.0,0.0,94,0.00,,---,0.00,VWS V14.00,2013-01-06 12:53:00,
2013-01-06 07:58:00,59.8,58.1,30.17,NE,51,0.0,0.0,94,0.00,,---,0.00,VWS V14.00,2013-01-06 12:58:00,
2013-01-06 08:00:00,62.5,61.0,30.17,NE,51,0.0,1.0,95,0.00,,---,0.00,VWS V14.00,2013-01-06 13:00:00,
2013-01-06 08:03:00,60.0,58.3,30.17,NE,51,0.0,0.0,94,0.00,,---,0.00,VWS V14.00,2013-01-06 13:03:00,
2013-01-06 08:08:00,60.2,58.8,30.17,NE,51,0.0,0.0,95,0.00,,---,0.00,VWS V14.00,2013-01-06 13:08:00,
2013-01-06 08:13:00,60.4,59.0,30.17,NE,51,0.0,0.0,95,0.00,,---,0.00,VWS V14.00,2013-01-06 13:13:00,
2013-01-06 08:18:00,60.6,59.2,30.17,NE,51,0.0,0.0,95,0.00,,---,0.00,VWS V14.00,2013-01-06 13:18:00,
2013-01-06 08:23:00,60.8,59.4,30.17,NE,51,0.0,0.0,95,0.00,,---,0.00,VWS V14.00,2013-01-06 13:23:00,
2013-01-06 08:28:00,61.0,59.6,30.18,NE,51,0.0,0.0,95,0.00,,---,0.00,VWS V14.00,2013-01-06 13:28:00,
2013-01-06 08:30:00,64.2,62.4,30.18,South,187,0.0,3.0,94,0.00,,---,0.00,VWS V14.00,2013-01-06 13:30:00,
2013-01-06 08:33:00,61.4,60.0,30.18,NE,51,0.0,0.0,95,0.00,,---,0.00,VWS V14.00,2013-01-06 13:33:00,
2013-01-06 08:38:00,61.6,60.2,30.18,NE,51,0.0,0.0,95,0.00,,---,0.00,VWS V14.00,2013-01-06 13:38:00,
2013-01-06 08:43:00,61.8,60.4,30.18,NE,51,0.0,0.0,95,0.00,,---,0.00,VWS V14.00,2013-01-06 13:43:00,
2013-01-06 08:48:00,62.0,60.6,30.18,NE,51,0.0,0.0,95,0.00,,---,0.00,VWS V14.00,2013-01-06 13:48:00,
2013-01-06 08:54:00,62.2,60.8,30.18,NE,51,0.0,0.0,95,0.00,,---,0.00,VWS V14.00,2013-01-06 13:54:00,
2013-01-06 08:59:00,62.5,61.0,30.18,NE,51,0.0,1.0,95,0.00,,---,0.00,VWS V14.00,2013-01-06 13:59:00,
2013-01-06 09:00:00,66.0,63.6,30.18,SW,228,0.0,3.0,92,0.00,,---,0.00,VWS V14.00,2013-01-06 14:00:00,
2013-01-06 09:04:00,62.7,61.2,30.17,NE,51,0.0,0.0,95,0.00,,---,0.00,VWS V14.00,2013-01-06 14:04:00,
2013-01-06 09:09:00,62.9,61.5,30.18,NE,51,0.0,0.0,95,0.00,,---,0.00,VWS V14.00,2013-01-06 14:09:00,
2013-01-06 09:14:00,63.2,61.8,30.18,NE,51,0.0,0.0,95,0.00,,---,0.00,VWS V14.00,2013-01-06 14:14:00,
2013-01-06 09:19:00,63.5,62.0,30.18,ENE,57,0.0,2.0,95,0.00,,---,0.00,VWS V14.00,2013-01-06 14:19:00,
2013-01-06 09:24:00,63.8,62.3,30.18,ENE,57,0.0,2.0,95,0.00,,---,0.00,VWS V14.00,2013-01-06 14:24:00,
2013-01-06 09:29:00,64.1,62.3,30.17,South,187,1.0,3.0,94,0.00,,---,0.00,VWS V14.00,2013-01-06 14:29:00,
2013-01-06 09:30:00,69.2,65.5,30.18,SSE,163,0.0,4.0,88,0.00,,---,0.00,VWS V14.00,2013-01-06 14:30:00,
2013-01-06 09:34:00,64.3,62.5,30.18,South,187,0.0,0.0,94,0.00,,---,0.00,VWS V14.00,2013-01-06 14:34:00,
2013-01-06 09:39:00,64.5,62.7,30.18,South,188,0.0,0.0,94,0.00,,---,0.00,VWS V14.00,2013-01-06 14:39:00,
2013-01-06 09:44:00,64.7,62.9,30.18,South,188,0.0,0.0,94,0.00,,---,0.00,VWS V14.00,2013-01-06 14:44:00,
2013-01-06 09:49:00,65.0,62.9,30.18,South,188,0.0,0.0,93,0.00,,---,0.00,VWS V14.00,2013-01-06 14:49:00,
2013-01-06 09:54:00,65.5,63.4,30.18,SW,228,0.0,3.0,93,0.00,,---,0.00,VWS V14.00,2013-01-06 14:54:00,
2013-01-06 09:59:00,65.9,63.5,30.18,SW,227,0.0,3.0,92,0.00,,---,0.00,VWS V14.00,2013-01-06 14:59:00,
2013-01-06 10:00:00,72.5,67.1,30.17,SSW,209,0.0,3.0,83,0.00,,---,0.00,VWS V14.00,2013-01-06 15:00:00,
2013-01-06 10:04:00,66.1,63.7,30.18,SW,227,0.0,1.0,92,0.00,,---,0.00,VWS V14.00,2013-01-06 15:04:00,
2013-01-06 10:09:00,66.7,64.0,30.18,SW,222,0.0,1.0,91,0.00,,---,0.00,VWS V14.00,2013-01-06 15:09:00,
2013-01-06 10:14:00,67.5,64.8,30.18,South,186,0.0,4.0,91,0.00,,---,0.00,VWS V14.00,2013-01-06 15:14:00,
2013-01-06 10:19:00,68.0,65.0,30.18,SSW,199,0.0,4.0,90,0.00,,---,0.00,VWS V14.00,2013-01-06 15:19:00,
2013-01-06 10:25:00,68.5,65.1,30.18,SSE,163,0.0,4.0,89,0.00,,---,0.00,VWS V14.00,2013-01-06 15:25:00,
2013-01-06 10:30:00,69.1,65.4,30.18,SSE,163,0.0,4.0,88,0.00,,---,0.00,VWS V14.00,2013-01-06 15:30:00,
2013-01-06 10:35:00,69.6,65.6,30.18,SSE,163,0.0,0.0,87,0.00,,---,0.00,VWS V14.00,2013-01-06 15:35:00,
2013-01-06 10:40:00,70.1,65.7,30.18,South,172,0.0,0.0,86,0.00,,---,0.00,VWS V14.00,2013-01-06 15:40:00,
2013-01-06 10:45:00,70.6,66.2,30.17,South,172,0.0,0.0,86,0.00,,---,0.00,VWS V14.00,2013-01-06 15:45:00,
2013-01-06 10:50:00,71.3,66.6,30.17,South,172,0.0,3.0,85,0.00,,---,0.00,VWS V14.00,2013-01-06 15:50:00,
2013-01-06 10:55:00,71.9,66.8,30.17,South,183,0.0,3.0,84,0.00,,---,0.00,VWS V14.00,2013-01-06 15:55:00,
2013-01-06 11:00:00,72.4,66.9,30.17,SW,215,0.0,3.0,83,0.00,,---,0.00,VWS V14.00,2013-01-06 16:00:00,
2013-01-06 11:05:00,72.7,66.9,30.17,WSW,253,2.0,4.0,82,0.00,,---,0.00,VWS V14.00,2013-01-06 16:05:00,
2013-01-06 11:10:00,73.0,67.2,30.17,West,268,2.0,5.0,82,0.00,,---,0.00,VWS V14.00,2013-01-06 16:10:00,
2013-01-06 11:15:00,73.1,66.9,30.17,WSW,241,0.0,5.0,81,0.00,,---,0.00,VWS V14.00,2013-01-06 16:15:00,
2013-01-06 11:20:00,73.6,67.4,30.16,WSW,244,0.0,5.0,81,0.00,,---,0.00,VWS V14.00,2013-01-06 16:20:00,
2013-01-06 11:25:00,74.0,67.4,30.16,SSW,197,0.0,5.0,80,0.00,,---,0.00,VWS V14.00,2013-01-06 16:25:00,
2013-01-06 11:30:00,74.5,67.2,30.16,South,191,0.0,5.0,78,0.00,,---,0.00,VWS V14.00,2013-01-06 16:30:00,
2013-01-06 11:35:00,74.8,67.5,30.15,South,182,0.0,0.0,78,0.00,,---,0.00,VWS V14.00,2013-01-06 16:35:00,
2013-01-06 11:40:00,75.1,67.4,30.15,South,183,0.0,1.0,77,0.00,,---,0.00,VWS V14.00,2013-01-06 16:40:00,
2013-01-06 11:45:00,75.4,66.9,30.15,SSW,209,0.0,1.0,75,0.00,,---,0.00,VWS V14.00,2013-01-06 16:45:00,
2013-01-06 11:50:00,75.7,67.2,30.15,SSE,157,0.0,5.0,75,0.00,,---,0.00,VWS V14.00,2013-01-06 16:50:00,
2013-01-06 11:56:00,76.2,67.7,30.15,SW,222,0.0,5.0,75,0.00,,---,0.00,VWS V14.00,2013-01-06 16:56:00,
2013-01-06 12:00:00,79.6,67.7,30.10,WSW,244,0.0,6.0,67,0.00,,---,0.00,VWS V14.00,2013-01-06 17:00:00,
2013-01-06 12:01:00,76.3,67.4,30.14,NW,321,0.0,5.0,74,0.00,,---,0.00,VWS V14.00,2013-01-06 17:01:00,
2013-01-06 12:06:00,76.6,67.3,30.14,South,190,0.0,1.0,73,0.00,,---,0.00,VWS V14.00,2013-01-06 17:06:00,
2013-01-06 12:11:00,77.4,68.1,30.14,SW,230,0.0,2.0,73,0.00,,---,0.00,VWS V14.00,2013-01-06 17:11:00,
2013-01-06 12:16:00,77.6,67.9,30.13,South,186,0.0,3.0,72,0.00,,---,0.00,VWS V14.00,2013-01-06 17:16:00,
2013-01-06 12:21:00,77.8,67.7,30.13,SSW,213,3.0,3.0,71,0.00,,---,0.00,VWS V14.00,2013-01-06 17:21:00,
2013-01-06 12:26:00,78.0,67.4,30.12,SW,218,1.0,8.0,70,0.00,,---,0.00,VWS V14.00,2013-01-06 17:26:00,
2013-01-06 12:30:00,80.2,67.8,30.09,South,181,0.0,7.0,66,0.00,,---,0.00,VWS V14.00,2013-01-06 17:30:00,
2013-01-06 12:31:00,78.7,68.1,30.12,WSW,239,0.0,0.0,70,0.00,,---,0.00,VWS V14.00,2013-01-06 17:31:00,
2013-01-06 12:36:00,78.9,67.9,30.12,West,267,0.0,4.0,69,0.00,,---,0.00,VWS V14.00,2013-01-06 17:36:00,
2013-01-06 12:41:00,79.0,67.6,30.11,SW,226,0.0,4.0,68,0.00,,---,0.00,VWS V14.00,2013-01-06 17:41:00,
2013-01-06 12:46:00,79.0,67.6,30.11,West,260,0.0,4.0,68,0.00,,---,0.00,VWS V14.00,2013-01-06 17:46:00,
2013-01-06 12:51:00,78.7,67.7,30.11,WSW,248,0.0,4.0,69,0.00,,---,0.00,VWS V14.00,2013-01-06 17:51:00,
2013-01-06 12:56:00,79.1,67.6,30.10,West,265,0.0,4.0,68,0.00,,---,0.00,VWS V14.00,2013-01-06 17:56:00,
2013-01-06 13:00:00,79.8,67.9,30.08,WSW,245,0.0,6.0,67,0.00,,---,0.00,VWS V14.00,2013-01-06 18:00:00,
2013-01-06 13:01:00,79.7,67.8,30.10,WSW,242,0.0,0.0,67,0.00,,---,0.00,VWS V14.00,2013-01-06 18:01:00,
2013-01-06 13:06:00,79.6,67.7,30.10,West,264,0.0,6.0,67,0.00,,---,0.00,VWS V14.00,2013-01-06 18:06:00,
2013-01-06 13:11:00,79.5,67.6,30.10,WSW,253,0.0,7.0,67,0.00,,---,0.00,VWS V14.00,2013-01-06 18:11:00,
2013-01-06 13:17:00,79.5,67.6,30.09,WSW,242,1.0,7.0,67,0.00,,---,0.00,VWS V14.00,2013-01-06 18:17:00,
2013-01-06 13:22:00,79.6,67.7,30.09,SSW,200,3.0,7.0,67,0.00,,---,0.00,VWS V14.00,2013-01-06 18:22:00,
2013-01-06 13:27:00,80.0,67.6,30.09,SSW,207,0.0,7.0,66,0.00,,---,0.00,VWS V14.00,2013-01-06 18:27:00,
2013-01-06 13:30:00,79.2,67.3,30.07,WNW,290,0.0,7.0,67,0.00,,---,0.00,VWS V14.00,2013-01-06 18:30:00,
2013-01-06 13:32:00,80.1,67.7,30.09,SW,214,0.0,4.0,66,0.00,,---,0.00,VWS V14.00,2013-01-06 18:32:00,
2013-01-06 13:37:00,79.9,67.5,30.08,SW,227,0.0,4.0,66,0.00,,---,0.00,VWS V14.00,2013-01-06 18:37:00,
2013-01-06 13:42:00,79.7,67.3,30.08,South,191,0.0,4.0,66,0.00,,---,0.00,VWS V14.00,2013-01-06 18:42:00,
2013-01-06 13:47:00,79.9,68.0,30.08,SW,226,0.0,4.0,67,0.00,,---,0.00,VWS V14.00,2013-01-06 18:47:00,
2013-01-06 13:52:00,80.2,68.3,30.08,South,186,0.0,6.0,67,0.00,,---,0.00,VWS V14.00,2013-01-06 18:52:00,
2013-01-06 13:57:00,80.0,67.6,30.08,SW,229,3.0,6.0,66,0.00,,---,0.00,VWS V14.00,2013-01-06 18:57:00,
2013-01-06 14:00:00,80.2,67.4,30.07,SSE,163,0.0,5.0,65,0.00,,---,0.00,VWS V14.00,2013-01-06 19:00:00,
2013-01-06 14:02:00,79.8,67.4,30.08,WSW,252,0.0,4.0,66,0.00,,---,0.00,VWS V14.00,2013-01-06 19:02:00,
2013-01-06 14:07:00,79.7,67.8,30.08,West,260,0.0,4.0,67,0.00,,---,0.00,VWS V14.00,2013-01-06 19:07:00,
2013-01-06 14:12:00,79.5,67.6,30.08,SW,230,0.0,4.0,67,0.00,,---,0.00,VWS V14.00,2013-01-06 19:12:00,
2013-01-06 14:18:00,79.0,67.1,30.07,SSW,198,0.0,7.0,67,0.00,,---,0.00,VWS V14.00,2013-01-06 19:18:00,
2013-01-06 14:23:00,78.9,67.4,30.07,WSW,242,0.0,7.0,68,0.00,,---,0.00,VWS V14.00,2013-01-06 19:23:00,
2013-01-06 14:28:00,79.1,67.6,30.07,SSW,204,0.0,7.0,68,0.00,,---,0.00,VWS V14.00,2013-01-06 19:28:00,
2013-01-06 14:30:00,80.3,67.9,30.07,SSW,213,0.0,5.0,66,0.00,,---,0.00,VWS V14.00,2013-01-06 19:30:00,
2013-01-06 14:33:00,79.2,67.7,30.07,WNW,296,0.0,1.0,68,0.00,,---,0.00,VWS V14.00,2013-01-06 19:33:00,
2013-01-06 14:38:00,79.3,67.4,30.07,WNW,284,0.0,3.0,67,0.00,,---,0.00,VWS V14.00,2013-01-06 19:38:00,
2013-01-06 14:43:00,79.5,67.6,30.07,WSW,244,0.0,3.0,67,0.00,,---,0.00,VWS V14.00,2013-01-06 19:43:00,
2013-01-06 14:48:00,79.9,67.5,30.07,WSW,238,0.0,3.0,66,0.00,,---,0.00,VWS V14.00,2013-01-06 19:48:00,
2013-01-06 14:54:00,80.1,67.7,30.07,SW,214,5.0,5.0,66,0.00,,---,0.00,VWS V14.00,2013-01-06 19:54:00,
2013-01-06 14:59:00,80.2,67.8,30.07,SW,221,0.0,5.0,66,0.00,,---,0.00,VWS V14.00,2013-01-06 19:59:00,
2013-01-06 15:00:00,78.7,67.7,30.06,SSW,193,0.0,2.0,69,0.00,,---,0.00,VWS V14.00,2013-01-06 20:00:00,
2013-01-06 15:05:00,80.3,67.9,30.07,SSW,195,0.0,1.0,66,0.00,,---,0.00,VWS V14.00,2013-01-06 20:05:00,
2013-01-06 15:10:00,80.5,67.7,30.07,WSW,250,1.0,5.0,65,0.00,,---,0.00,VWS V14.00,2013-01-06 20:10:00,
2013-01-06 15:11:00,80.6,67.8,30.07,SW,224,0.0,5.0,65,0.00,,---,0.00,VWS V14.00,2013-01-06 20:11:00,
2013-01-06 15:14:00,80.9,68.5,30.07,South,190,0.0,5.0,66,0.00,,---,0.00,VWS V14.00,2013-01-06 20:14:00,
2013-01-06 15:19:00,81.2,67.9,30.07,WSW,252,0.0,5.0,64,0.00,,---,0.00,VWS V14.00,2013-01-06 20:19:00,
2013-01-06 15:24:00,81.1,67.8,30.06,WSW,251,0.0,5.0,64,0.00,,---,0.00,VWS V14.00,2013-01-06 20:24:00,
2013-01-06 15:29:00,80.5,67.7,30.06,SSW,213,0.0,5.0,65,0.00,,---,0.00,VWS V14.00,2013-01-06 20:29:00,
2013-01-06 15:30:00,78.7,67.7,30.06,SSW,201,0.0,6.0,69,0.00,,---,0.00,VWS V14.00,2013-01-06 20:30:00,
2013-01-06 15:34:00,80.0,67.2,30.06,SW,222,0.0,0.0,65,0.00,,---,0.00,VWS V14.00,2013-01-06 20:34:00,
2013-01-06 15:39:00,79.4,67.5,30.07,SW,222,0.0,0.0,67,0.00,,---,0.00,VWS V14.00,2013-01-06 20:39:00,
2013-01-06 15:45:00,79.1,67.6,30.06,SSE,165,0.0,2.0,68,0.00,,---,0.00,VWS V14.00,2013-01-06 20:45:00,
2013-01-06 15:50:00,78.8,67.4,30.06,SSE,165,0.0,2.0,68,0.00,,---,0.00,VWS V14.00,2013-01-06 20:50:00,
2013-01-06 15:55:00,78.7,67.7,30.06,SSE,165,0.0,2.0,69,0.00,,---,0.00,VWS V14.00,2013-01-06 20:55:00,
2013-01-06 16:00:00,78.7,67.7,30.06,SSW,192,0.0,2.0,69,0.00,,---,0.00,VWS V14.00,2013-01-06 21:00:00,
2013-01-06 16:02:00,78.7,67.7,30.06,SSW,192,0.0,0.0,69,0.00,,---,0.00,VWS V14.00,2013-01-06 21:02:00,
2013-01-06 16:07:00,78.6,68.0,30.06,SSW,193,0.0,0.0,70,0.00,,---,0.00,VWS V14.00,2013-01-06 21:07:00,
2013-01-06 16:12:00,78.5,67.5,30.06,SSW,192,0.0,1.0,69,0.00,,---,0.00,VWS V14.00,2013-01-06 21:12:00,
2013-01-06 16:17:00,78.5,67.9,30.06,SSW,193,0.0,1.0,70,0.00,,---,0.00,VWS V14.00,2013-01-06 21:17:00,
2013-01-06 16:22:00,78.6,68.4,30.06,SSW,192,0.0,1.0,71,0.00,,---,0.00,VWS V14.00,2013-01-06 21:22:00,
2013-01-06 16:27:00,78.7,67.7,30.06,SSW,200,0.0,6.0,69,0.00,,---,0.00,VWS V14.00,2013-01-06 21:27:00,
2013-01-06 16:30:00,76.8,67.5,30.08,SSW,192,0.0,3.0,73,0.00,,---,0.00,VWS V14.00,2013-01-06 21:30:00,
2013-01-06 16:32:00,78.7,67.7,30.06,SSW,202,0.0,0.0,69,0.00,,---,0.00,VWS V14.00,2013-01-06 21:32:00,
2013-01-06 16:37:00,78.7,67.7,30.07,NE,48,0.0,1.0,69,0.00,,---,0.00,VWS V14.00,2013-01-06 21:37:00,
2013-01-06 16:42:00,78.7,67.7,30.07,NE,51,0.0,1.0,69,0.00,,---,0.00,VWS V14.00,2013-01-06 21:42:00,
2013-01-06 16:47:00,78.5,67.5,30.07,SSW,192,0.0,1.0,69,0.00,,---,0.00,VWS V14.00,2013-01-06 21:47:00,
2013-01-06 16:52:00,78.3,67.7,30.07,SSW,192,0.0,1.0,70,0.00,,---,0.00,VWS V14.00,2013-01-06 21:52:00,
2013-01-06 16:57:00,78.1,67.9,30.07,SSW,192,0.0,1.0,71,0.00,,---,0.00,VWS V14.00,2013-01-06 21:57:00,
2013-01-06 17:00:00,75.5,67.0,30.09,WSW,248,0.0,3.0,75,0.00,,---,0.00,VWS V14.00,2013-01-06 22:00:00,
2013-01-06 17:02:00,78.0,67.8,30.07,SSW,192,0.0,0.0,71,0.00,,---,0.00,VWS V14.00,2013-01-06 22:02:00,
2013-01-06 17:07:00,77.7,68.0,30.07,SSW,192,0.0,2.0,72,0.00,,---,0.00,VWS V14.00,2013-01-06 22:07:00,
2013-01-06 17:12:00,77.5,67.8,30.07,SSW,192,0.0,2.0,72,0.00,,---,0.00,VWS V14.00,2013-01-06 22:12:00,
2013-01-06 17:17:00,77.3,67.6,30.07,SSW,192,0.0,3.0,72,0.00,,---,0.00,VWS V14.00,2013-01-06 22:17:00,
2013-01-06 17:22:00,77.1,67.4,30.07,SSW,192,0.0,3.0,72,0.00,,---,0.00,VWS V14.00,2013-01-06 22:22:00,
2013-01-06 17:28:00,76.9,67.6,30.08,SSW,193,0.0,3.0,73,0.00,,---,0.00,VWS V14.00,2013-01-06 22:28:00,
2013-01-06 17:30:00,72.8,66.3,30.10,NW,316,0.0,9.0,80,0.00,,---,0.00,VWS V14.00,2013-01-06 22:30:00,
2013-01-06 17:33:00,76.8,67.5,30.08,SSW,193,0.0,0.0,73,0.00,,---,0.00,VWS V14.00,2013-01-06 22:33:00,
2013-01-06 17:38:00,76.5,67.2,30.08,WSW,248,0.0,3.0,73,0.00,,---,0.00,VWS V14.00,2013-01-06 22:38:00,
2013-01-06 17:43:00,76.3,67.0,30.08,WSW,248,0.0,3.0,73,0.00,,---,0.00,VWS V14.00,2013-01-06 22:43:00,
2013-01-06 17:48:00,76.1,66.8,30.08,WSW,247,0.0,3.0,73,0.00,,---,0.00,VWS V14.00,2013-01-06 22:48:00,
2013-01-06 17:53:00,75.9,67.0,30.08,WSW,248,0.0,3.0,74,0.00,,---,0.00,VWS V14.00,2013-01-06 22:53:00,
2013-01-06 17:58:00,75.6,66.7,30.08,WSW,248,0.0,3.0,74,0.00,,---,0.00,VWS V14.00,2013-01-06 22:58:00,
2013-01-06 18:00:00,70.5,65.8,30.10,NE,34,0.0,1.0,85,0.00,,---,0.00,VWS V14.00,2013-01-06 23:00:00,
2013-01-06 18:03:00,75.4,66.9,30.09,WSW,248,0.0,0.0,75,0.00,,---,0.00,VWS V14.00,2013-01-06 23:03:00,
2013-01-06 18:08:00,75.1,67.0,30.09,NNW,333,0.0,9.0,76,0.00,,---,0.00,VWS V14.00,2013-01-06 23:08:00,
2013-01-06 18:13:00,74.7,66.6,30.09,NE,54,3.0,9.0,76,0.00,,---,0.00,VWS V14.00,2013-01-06 23:13:00,
2013-01-06 18:18:00,74.2,66.2,30.10,NNW,345,3.0,9.0,76,0.00,,---,0.00,VWS V14.00,2013-01-06 23:18:00,
2013-01-06 18:23:00,73.6,66.3,30.10,SE,132,0.0,9.0,78,0.00,,---,0.00,VWS V14.00,2013-01-06 23:23:00,
2013-01-06 18:28:00,73.0,66.1,30.10,NNW,342,0.0,9.0,79,0.00,,---,0.00,VWS V14.00,2013-01-06 23:28:00,
2013-01-06 18:30:00,69.3,65.3,30.10,NE,34,0.0,0.0,87,0.00,,---,0.00,VWS V14.00,2013-01-06 23:30:00,
2013-01-06 18:34:00,72.5,66.0,30.10,NE,34,0.0,0.0,80,0.00,,---,0.00,VWS V14.00,2013-01-06 23:34:00,
2013-01-06 18:39:00,72.0,66.2,30.10,NE,34,0.0,1.0,82,0.00,,---,0.00,VWS V14.00,2013-01-06 23:39:00,
2013-01-06 18:44:00,71.6,66.2,30.10,NE,34,0.0,1.0,83,0.00,,---,0.00,VWS V14.00,2013-01-06 23:44:00,
2013-01-06 18:49:00,71.3,65.9,30.10,NE,34,0.0,1.0,83,0.00,,---,0.00,VWS V14.00,2013-01-06 23:49:00,
2013-01-06 18:54:00,70.9,65.8,30.10,NE,34,0.0,1.0,84,0.00,,---,0.00,VWS V14.00,2013-01-06 23:54:00,
2013-01-06 18:59:00,70.6,65.9,30.10,NE,34,0.0,1.0,85,0.00,,---,0.00,VWS V14.00,2013-01-06 23:59:00,
2013-01-06 19:00:00,68.5,64.8,30.12,NE,34,0.0,0.0,88,0.00,,---,0.00,VWS V14.00,2013-01-07 00:00:00,
2013-01-06 19:04:00,70.3,65.6,30.10,NE,34,0.0,0.0,85,0.00,,---,0.00,VWS V14.00,2013-01-07 00:04:00,
2013-01-06 19:09:00,70.1,65.4,30.10,NE,34,0.0,0.0,85,0.00,,---,0.00,VWS V14.00,2013-01-07 00:09:00,
2013-01-06 19:14:00,69.9,65.5,30.10,NE,34,0.0,0.0,86,0.00,,---,0.00,VWS V14.00,2013-01-07 00:14:00,
2013-01-06 19:19:00,69.7,65.3,30.10,NE,34,0.0,0.0,86,0.00,,---,0.00,VWS V14.00,2013-01-07 00:19:00,
2013-01-06 19:25:00,69.5,65.5,30.10,NE,34,0.0,0.0,87,0.00,,---,0.00,VWS V14.00,2013-01-07 00:25:00,
2013-01-06 19:30:00,69.3,65.3,30.10,NE,34,0.0,0.0,87,0.00,,---,0.00,VWS V14.00,2013-01-07 00:30:00,
2013-01-06 19:35:00,69.1,65.1,30.11,NE,34,0.0,0.0,87,0.00,,---,0.00,VWS V14.00,2013-01-07 00:35:00,
2013-01-06 19:40:00,69.0,65.3,30.11,NE,34,0.0,0.0,88,0.00,,---,0.00,VWS V14.00,2013-01-07 00:40:00,
2013-01-06 19:45:00,68.9,65.2,30.12,NE,34,0.0,0.0,88,0.00,,---,0.00,VWS V14.00,2013-01-07 00:45:00,
2013-01-06 19:50:00,68.8,65.1,30.12,NE,34,0.0,0.0,88,0.00,,---,0.00,VWS V14.00,2013-01-07 00:50:00,
2013-01-06 19:55:00,68.6,64.9,30.12,NE,34,0.0,0.0,88,0.00,,---,0.00,VWS V14.00,2013-01-07 00:55:00,
2013-01-06 20:00:00,68.5,64.8,30.12,NE,34,0.0,0.0,88,0.00,,---,0.00,VWS V14.00,2013-01-07 01:00:00,
2013-01-06 20:05:00,68.3,64.6,30.12,NE,34,0.0,0.0,88,0.00,,---,0.00,VWS V14.00,2013-01-07 01:05:00,
2013-01-06 20:11:00,68.2,64.8,30.12,NE,34,0.0,0.0,89,0.00,,---,0.00,VWS V14.00,2013-01-07 01:11:00,
2013-01-06 20:16:00,68.1,64.7,30.12,NE,34,0.0,0.0,89,0.00,,---,0.00,VWS V14.00,2013-01-07 01:16:00,
2013-01-06 20:21:00,68.1,64.7,30.12,NE,34,0.0,0.0,89,0.00,,---,0.00,VWS V14.00,2013-01-07 01:21:00,
2013-01-06 20:26:00,68.0,64.6,30.12,NE,34,0.0,0.0,89,0.00,,---,0.00,VWS V14.00,2013-01-07 01:26:00,
2013-01-06 20:30:00,66.5,63.5,30.14,NE,34,0.0,1.0,90,0.00,,---,0.00,VWS V14.00,2013-01-07 01:30:00,
2013-01-06 20:31:00,68.1,64.7,30.12,NE,34,0.0,0.0,89,0.00,,---,0.00,VWS V14.00,2013-01-07 01:31:00,
2013-01-06 20:36:00,68.1,64.7,30.12,NE,34,0.0,0.0,89,0.00,,---,0.00,VWS V14.00,2013-01-07 01:36:00,
2013-01-06 20:41:00,68.1,64.7,30.12,NE,34,0.0,0.0,89,0.00,,---,0.00,VWS V14.00,2013-01-07 01:41:00,
2013-01-06 20:46:00,68.0,64.6,30.12,NE,34,0.0,0.0,89,0.00,,---,0.00,VWS V14.00,2013-01-07 01:46:00,
2013-01-06 20:51:00,67.9,64.9,30.12,NE,34,0.0,0.0,90,0.00,,---,0.00,VWS V14.00,2013-01-07 01:51:00,
2013-01-06 20:56:00,67.8,64.8,30.12,NE,34,0.0,0.0,90,0.00,,---,0.00,VWS V14.00,2013-01-07 01:56:00,
2013-01-06 21:00:00,64.7,61.7,30.15,NNE,33,0.0,1.0,90,0.00,,---,0.00,VWS V14.00,2013-01-07 02:00:00,
2013-01-06 21:01:00,67.8,64.8,30.12,NE,34,0.0,0.0,90,0.00,,---,0.00,VWS V14.00,2013-01-07 02:01:00,
2013-01-06 21:06:00,67.9,65.2,30.13,NE,34,0.0,1.0,91,0.00,,---,0.00,VWS V14.00,2013-01-07 02:06:00,
2013-01-06 21:11:00,67.9,65.2,30.13,NE,34,0.0,1.0,91,0.00,,---,0.00,VWS V14.00,2013-01-07 02:11:00,
2013-01-06 21:16:00,67.6,64.9,30.12,NE,34,0.0,1.0,91,0.00,,---,0.00,VWS V14.00,2013-01-07 02:16:00,
2013-01-06 21:21:00,67.3,64.3,30.13,NE,40,0.0,1.0,90,0.00,,---,0.00,VWS V14.00,2013-01-07 02:21:00,
2013-01-06 21:26:00,66.9,63.9,30.13,NE,34,0.0,1.0,90,0.00,,---,0.00,VWS V14.00,2013-01-07 02:26:00,
2013-01-06 21:30:00,63.6,60.9,30.15,ENE,69,0.0,1.0,91,0.00,,---,0.00,VWS V14.00,2013-01-07 02:30:00,
2013-01-06 21:31:00,66.4,63.4,30.14,NNE,33,0.0,0.0,90,0.00,,---,0.00,VWS V14.00,2013-01-07 02:31:00,
2013-01-06 21:36:00,66.0,63.0,30.14,NE,34,0.0,0.0,90,0.00,,---,0.00,VWS V14.00,2013-01-07 02:36:00,
2013-01-06 21:41:00,65.7,62.7,30.14,NE,34,0.0,0.0,90,0.00,,---,0.00,VWS V14.00,2013-01-07 02:41:00,
2013-01-06 21:47:00,65.5,62.5,30.14,NE,34,0.0,1.0,90,0.00,,---,0.00,VWS V14.00,2013-01-07 02:47:00,
2013-01-06 21:52:00,65.1,62.1,30.14,NNE,33,0.0,1.0,90,0.00,,---,0.00,VWS V14.00,2013-01-07 02:52:00,
2013-01-06 21:57:00,64.9,61.9,30.14,NE,34,0.0,1.0,90,0.00,,---,0.00,VWS V14.00,2013-01-07 02:57:00,
2013-01-06 22:00:00,62.7,60.0,30.15,NNW,348,0.0,4.0,91,0.00,,---,0.00,VWS V14.00,2013-01-07 03:00:00,
2013-01-06 22:02:00,64.7,61.7,30.15,NE,34,0.0,0.0,90,0.00,,---,0.00,VWS V14.00,2013-01-07 03:02:00,
2013-01-06 22:07:00,64.4,61.4,30.15,NNE,33,0.0,1.0,90,0.00,,---,0.00,VWS V14.00,2013-01-07 03:07:00,
2013-01-06 22:12:00,64.2,61.2,30.14,NE,34,0.0,1.0,90,0.00,,---,0.00,VWS V14.00,2013-01-07 03:12:00,
2013-01-06 22:17:00,64.0,61.0,30.15,NNE,33,0.0,1.0,90,0.00,,---,0.00,VWS V14.00,2013-01-07 03:17:00,
2013-01-06 22:22:00,63.8,60.8,30.15,NE,34,0.0,1.0,90,0.00,,---,0.00,VWS V14.00,2013-01-07 03:22:00,
2013-01-06 22:27:00,63.7,61.0,30.15,ENE,69,0.0,1.0,91,0.00,,---,0.00,VWS V14.00,2013-01-07 03:27:00,
2013-01-06 22:30:00,61.4,59.1,30.16,ENE,76,0.0,1.0,92,0.01,,---,0.01,VWS V14.00,2013-01-07 03:30:00,
2013-01-06 22:32:00,63.5,60.8,30.15,NE,42,0.0,1.0,91,0.00,,---,0.00,VWS V14.00,2013-01-07 03:32:00,
2013-01-06 22:37:00,63.4,60.7,30.15,NE,47,0.0,1.0,91,0.00,,---,0.00,VWS V14.00,2013-01-07 03:37:00,
2013-01-06 22:42:00,63.3,60.6,30.15,NE,47,0.0,1.0,91,0.00,,---,0.00,VWS V14.00,2013-01-07 03:42:00,
2013-01-06 22:47:00,63.2,60.5,30.16,NE,47,0.0,1.0,91,0.00,,---,0.00,VWS V14.00,2013-01-07 03:47:00,
2013-01-06 22:52:00,63.0,60.3,30.15,NE,47,0.0,2.0,91,0.00,,---,0.00,VWS V14.00,2013-01-07 03:52:00,
2013-01-06 22:57:00,62.9,60.2,30.15,NNE,22,0.0,4.0,91,0.00,,---,0.00,VWS V14.00,2013-01-07 03:57:00,
2013-01-06 23:00:00,60.4,58.4,30.16,North,350,0.0,5.0,93,0.01,,---,0.01,VWS V14.00,2013-01-07 04:00:00,
2013-01-06 23:02:00,62.6,59.9,30.15,North,355,0.0,1.0,91,0.01,,---,0.01,VWS V14.00,2013-01-07 04:02:00,
2013-01-06 23:07:00,62.3,60.0,30.16,NNW,342,0.0,1.0,92,0.01,,---,0.01,VWS V14.00,2013-01-07 04:07:00,
2013-01-06 23:12:00,62.1,59.8,30.16,NNW,342,0.0,1.0,92,0.01,,---,0.01,VWS V14.00,2013-01-07 04:12:00,
2013-01-06 23:17:00,61.9,59.5,30.16,East,80,0.0,1.0,92,0.01,,---,0.01,VWS V14.00,2013-01-07 04:17:00,
2013-01-06 23:23:00,61.7,59.4,30.16,ENE,77,0.0,1.0,92,0.01,,---,0.01,VWS V14.00,2013-01-07 04:23:00,
2013-01-06 23:28:00,61.4,59.1,30.16,ENE,76,0.0,1.0,92,0.01,,---,0.01,VWS V14.00,2013-01-07 04:28:00,
2013-01-06 23:30:00,59.9,57.9,30.15,NNE,15,0.0,3.0,93,0.01,,---,0.00,VWS V14.00,2013-01-07 04:30:00,
2013-01-06 23:33:00,61.3,59.0,30.16,ENE,77,0.0,0.0,92,0.01,,---,0.01,VWS V14.00,2013-01-07 04:33:00,
2013-01-06 23:38:00,61.0,58.7,30.16,North,355,0.0,3.0,92,0.01,,---,0.01,VWS V14.00,2013-01-07 04:38:00,
2013-01-06 23:43:00,60.8,58.5,30.16,North,350,0.0,5.0,92,0.01,,---,0.01,VWS V14.00,2013-01-07 04:43:00,
2013-01-06 23:48:00,60.6,58.6,30.16,North,350,0.0,5.0,93,0.01,,---,0.01,VWS V14.00,2013-01-07 04:48:00,
2013-01-06 23:53:00,60.5,58.5,30.16,North,350,0.0,5.0,93,0.01,,---,0.01,VWS V14.00,2013-01-07 04:53:00,
2013-01-06 23:58:00,60.5,58.5,30.16,North,350,0.0,5.0,93,0.01,,---,0.01,VWS V14.00,2013-01-07 04:58:00,